TimeEDT,TemperatureF,Dew PointF,Humidity,Sea Level PressureIn,VisibilityMPH,Wind Direction,Wind SpeedMPH,Gust SpeedMPH,PrecipitationIn,Events,Conditions,WindDirDegrees,DateUTC
12:51 AM,50.0,46.0,86,30.24,10.0,Calm,Calm,-,N/A,,Overcast,0,2012-10-09 04:51:00
1:51 AM,50.0,46.0,86,30.22,10.0,Calm,Calm,-,N/A,,Mostly Cloudy,0,2012-10-09 05:51:00
2:51 AM,50.0,46.0,86,30.21,10.0,North,3.5,-,N/A,,Overcast,360,2012-10-09 06:51:00
3:51 AM,50.0,44.6,82,30.21,10.0,North,4.6,-,N/A,Rain,Light Rain,350,2012-10-09 07:51:00
4:51 AM,51.1,45.0,80,30.21,10.0,North,4.6,-,0.00,,Overcast,360,2012-10-09 08:51:00
5:51 AM,51.1,45.0,80,30.20,10.0,North,6.9,-,N/A,,Overcast,360,2012-10-09 09:51:00
6:23 AM,51.8,44.6,76,30.20,10.0,North,5.8,-,N/A,,Overcast,10,2012-10-09 10:23:00
6:51 AM,51.1,45.0,80,30.19,10.0,North,4.6,-,N/A,,Overcast,10,2012-10-09 10:51:00
7:06 AM,51.8,44.6,76,30.19,10.0,North,5.8,-,0.00,,Light Drizzle,10,2012-10-09 11:06:00
7:32 AM,51.8,44.6,76,30.20,10.0,North,3.5,-,0.00,,Overcast,10,2012-10-09 11:32:00
7:51 AM,51.8,44.6,76,30.19,10.0,North,5.8,-,N/A,Rain,Light Rain,350,2012-10-09 11:51:00
8:51 AM,52.0,46.9,83,30.20,10.0,NNE,4.6,-,0.01,,Overcast,20,2012-10-09 12:51:00
9:51 AM,53.6,46.4,77,30.19,10.0,NNE,6.9,-,N/A,,Overcast,30,2012-10-09 13:51:00
10:51 AM,55.9,48.0,75,30.19,10.0,North,5.8,-,N/A,,Overcast,10,2012-10-09 14:51:00
11:00 AM,55.4,48.2,77,30.19,10.0,North,5.8,-,N/A,,Overcast,10,2012-10-09 15:00:00
11:51 AM,55.9,48.0,75,30.18,10.0,North,6.9,-,N/A,,Overcast,360,2012-10-09 15:51:00
12:51 PM,57.0,48.9,74,30.16,10.0,North,5.8,-,N/A,,Overcast,10,2012-10-09 16:51:00
1:51 PM,59.0,50.0,72,30.14,10.0,East,8.1,-,N/A,,Overcast,80,2012-10-09 17:51:00
2:51 PM,59.0,50.0,72,30.13,6.0,ENE,6.9,-,N/A,,Haze,70,2012-10-09 18:51:00
3:51 PM,59.0,50.0,72,30.12,10.0,NE,6.9,-,N/A,,Overcast,40,2012-10-09 19:51:00
4:51 PM,59.0,50.0,72,30.12,10.0,Calm,Calm,-,N/A,,Overcast,0,2012-10-09 20:51:00
5:51 PM,57.9,50.0,75,30.12,9.0,NNE,4.6,-,N/A,,Overcast,20,2012-10-09 21:51:00
6:51 PM,57.9,50.0,75,30.11,10.0,NNE,4.6,-,N/A,,Overcast,30,2012-10-09 22:51:00
7:51 PM,57.9,50.0,75,30.11,10.0,Calm,Calm,-,N/A,,Overcast,0,2012-10-09 23:51:00
8:51 PM,57.0,50.0,77,30.10,10.0,NE,3.5,-,N/A,,Overcast,50,2012-10-10 00:51:00
9:51 PM,57.0,50.0,77,30.10,10.0,ENE,3.5,-,N/A,,Overcast,60,2012-10-10 01:51:00
10:51 PM,57.0,50.0,77,30.09,10.0,NE,4.6,-,N/A,,Overcast,40,2012-10-10 02:51:00
11:51 PM,57.0,50.0,77,30.08,10.0,NE,4.6,-,N/A,,Overcast,40,2012-10-10 03:51:00